| time (UTC) | temp C | wind direction | speed KPH | gust KPH | rain 1hr cm | rain 24hr cm | rain mn cm | humidity % | barometer mb |
| 20260505222545 | 7 | 355 | 9.7 | 20.9 | 0.00 | 0.25 | 0.25 | 89 | 1009.3 |
| 20260505222044 | 7 | 55 | 4.8 | 20.9 | 0.00 | 0.25 | 0.25 | 89 | 1009.0 |
| 20260505221549 | 7 | 355 | 4.8 | 16.1 | 0.00 | 0.25 | 0.25 | 88 | 1009.0 |
| 20260505221041 | 8 | 309 | 3.2 | 14.5 | 0.00 | 0.25 | 0.25 | 87 | 1009.1 |
| 20260505220644 | 8 | 327 | 4.8 | 14.5 | 0.00 | 0.25 | 0.25 | 87 | 1009.0 |
| 20260505220044 | 8 | 346 | 4.8 | 20.9 | 0.00 | 0.25 | 0.25 | 85 | 1009.2 |
| 20260505215543 | 8 | 355 | 11.3 | 20.9 | 0.00 | 0.25 | 0.25 | 85 | 1009.2 |
| 20260505215042 | 8 | 40 | 8.0 | 17.7 | 0.00 | 0.25 | 0.25 | 85 | 1008.9 |
| 20260505214543 | 8 | 28 | 6.4 | 16.1 | 0.00 | 0.25 | 0.25 | 86 | 1009.0 |
| 20260505214047 | 8 | 11 | 4.8 | 17.7 | 0.00 | 0.25 | 0.25 | 86 | 1009.0 |
| 20260505213541 | 8 | 39 | 8.0 | 19.3 | 0.00 | 0.25 | 0.25 | 85 | 1009.2 |
| 20260505213041 | 8 | 329 | 4.8 | 24.1 | 0.00 | 0.25 | 0.25 | 86 | 1009.3 |
| 20260505212540 | 8 | 36 | 9.7 | 24.1 | 0.00 | 0.25 | 0.25 | 86 | 1009.0 |
| 20260505212041 | 8 | 288 | 12.9 | 24.1 | 0.00 | 0.25 | 0.25 | 85 | 1009.0 |
| 20260505211541 | 8 | 350 | 6.4 | 24.1 | 0.00 | 0.25 | 0.25 | 86 | 1008.8 |
| 20260505211037 | 8 | 355 | 9.7 | 19.3 | 0.00 | 0.25 | 0.25 | 86 | 1008.7 |
| 20260505210636 | 9 | 334 | 11.3 | 19.3 | 0.00 | 0.25 | 0.25 | 86 | 1008.8 |
| 20260505210059 | 9 | 5 | 6.4 | 25.7 | 0.00 | 0.25 | 0.25 | 85 | 1009.1 |
| 20260505205558 | 9 | 9 | 6.4 | 25.7 | 0.00 | 0.25 | 0.25 | 85 | 1009.3 |
| 20260505205058 | 9 | 170 | 4.8 | 19.3 | 0.00 | 0.25 | 0.25 | 85 | 1009.4 |
| 20260505204601 | 9 | 331 | 1.6 | 16.1 | 0.00 | 0.25 | 0.25 | 85 | 1009.2 |
| 20260505204056 | 9 | 11 | 8.0 | 20.9 | 0.00 | 0.25 | 0.25 | 84 | 1009.1 |
| 20260505203556 | 10 | 328 | 6.4 | 24.1 | 0.00 | 0.25 | 0.25 | 84 | 1008.9 |
| 20260505203101 | 10 | 11 | 6.4 | 24.1 | 0.00 | 0.25 | 0.25 | 84 | 1008.9 |
| 20260505202554 | 10 | 34 | 6.4 | 27.4 | 0.00 | 0.25 | 0.25 | 84 | 1008.9 |
| 20260505202054 | 10 | 101 | 9.7 | 27.4 | 0.00 | 0.25 | 0.25 | 84 | 1008.9 |
| 20260505201553 | 10 | 39 | 6.4 | 24.1 | 0.00 | 0.25 | 0.25 | 84 | 1008.9 |
| 20260505201052 | 10 | 24 | 11.3 | 22.5 | 0.00 | 0.25 | 0.25 | 85 | 1009.0 |
| 20260505200654 | 10 | 345 | 4.8 | 16.1 | 0.00 | 0.25 | 0.25 | 86 | 1008.9 |
| 20260505200052 | 10 | 350 | 6.4 | 12.9 | 0.00 | 0.25 | 0.25 | 85 | 1008.9 |
| 20260505195552 | 10 | 5 | 3.2 | 17.7 | 0.00 | 0.25 | 0.25 | 85 | 1009.2 |
| 20260505195052 | 10 | 329 | 8.0 | 20.9 | 0.00 | 0.25 | 0.25 | 85 | 1009.2 |
| 20260505194606 | 10 | 355 | 9.7 | 22.5 | 0.00 | 0.25 | 0.25 | 84 | 1009.3 |
| 20260505194052 | 10 | 360 | 8.0 | 22.5 | 0.00 | 0.25 | 0.25 | 84 | 1009.2 |
| 20260505193551 | 10 | 355 | 8.0 | 33.8 | 0.00 | 0.25 | 0.25 | 84 | 1009.0 |
| 20260505193050 | 10 | 9 | 16.1 | 33.8 | 0.00 | 0.25 | 0.25 | 85 | 1009.2 |
| 20260505192550 | 10 | 355 | 12.9 | 25.7 | 0.00 | 0.25 | 0.25 | 86 | 1009.4 |
| 20260505192050 | 10 | 348 | 6.4 | 22.5 | 0.00 | 0.25 | 0.25 | 89 | 1009.6 |
| 20260505191603 | 10 | 50 | 9.7 | 22.5 | 0.00 | 0.25 | 0.25 | 89 | 1009.7 |
| 20260505191050 | 10 | 355 | 8.0 | 17.7 | 0.00 | 0.25 | 0.25 | 90 | 1009.6 |
| 20260505190649 | 10 | 17 | 6.4 | 19.3 | 0.00 | 0.25 | 0.25 | 91 | 1009.5 |
| 20260505190051 | 10 | 347 | 6.4 | 20.9 | 0.00 | 0.25 | 0.25 | 91 | 1009.6 |
| 20260505185549 | 10 | 351 | 3.2 | 16.1 | 0.00 | 0.25 | 0.25 | 91 | 1009.8 |
| 20260505185049 | 10 | 24 | 4.8 | 17.7 | 0.00 | 0.25 | 0.25 | 91 | 1009.7 |
| 20260505184548 | 10 | 15 | 4.8 | 19.3 | 0.00 | 0.25 | 0.25 | 91 | 1009.3 |
| 20260505184048 | 10 | 17 | 3.2 | 19.3 | 0.00 | 0.25 | 0.25 | 91 | 1009.1 |
| 20260505183549 | 10 | 5 | 6.4 | 19.3 | 0.00 | 0.25 | 0.25 | 90 | 1009.0 |
| 20260505183046 | 10 | 34 | 3.2 | 24.1 | 0.00 | 0.25 | 0.25 | 91 | 1009.0 |
| 20260505182545 | 10 | 360 | 9.7 | 24.1 | 0.00 | 0.25 | 0.25 | 91 | 1008.9 |
| 20260505182049 | 10 | 5 | 8.0 | 16.1 | 0.00 | 0.25 | 0.25 | 91 | 1008.8 |
| 20260505181545 | 10 | 16 | 4.8 | 17.7 | 0.00 | 0.25 | 0.25 | 91 | 1008.8 |
| 20260505181046 | 10 | 87 | 3.2 | 17.7 | 0.00 | 0.25 | 0.25 | 91 | 1008.7 |
| 20260505180644 | 10 | 355 | 6.4 | 17.7 | 0.00 | 0.25 | 0.25 | 91 | 1008.7 |
| 20260505180054 | 10 | 12 | 4.8 | 16.1 | 0.00 | 0.25 | 0.25 | 91 | 1008.7 |
| 20260505175546 | 10 | 5 | 4.8 | 20.9 | 0.00 | 0.25 | 0.25 | 90 | 1008.7 |
| 20260505175045 | 10 | 11 | 6.4 | 20.9 | 0.00 | 0.25 | 0.25 | 89 | 1008.7 |
| 20260505174545 | 11 | 53 | 4.8 | 17.7 | 0.00 | 0.25 | 0.25 | 88 | 1008.9 |
| 20260505174045 | 11 | 34 | 3.2 | 17.7 | 0.00 | 0.25 | 0.25 | 88 | 1009.0 |
| 20260505173544 | 11 | 13 | 6.4 | 17.7 | 0.00 | 0.25 | 0.25 | 88 | 1009.1 |
| 20260505173048 | 11 | 278 | 6.4 | 19.3 | 0.00 | 0.25 | 0.25 | 87 | 1009.1 |
| 20260505172543 | 11 | 49 | 6.4 | 19.3 | 0.00 | 0.25 | 0.25 | 88 | 1009.7 |
| 20260505172042 | 11 | 360 | 4.8 | 16.1 | 0.00 | 0.25 | 0.25 | 88 | 1009.6 |
| 20260505171547 | 11 | 26 | 8.0 | 16.1 | 0.00 | 0.25 | 0.25 | 88 | 1009.5 |
| 20260505171042 | 11 | 310 | 1.6 | 19.3 | 0.00 | 0.25 | 0.25 | 89 | 1009.3 |
| 20260505170642 | 11 | 49 | 3.2 | 19.3 | 0.00 | 0.25 | 0.25 | 89 | 1009.6 |
| 20260505170041 | 11 | 327 | 6.4 | 16.1 | 0.00 | 0.25 | 0.25 | 89 | 1009.5 |
| 20260505165540 | 11 | 26 | 6.4 | 17.7 | 0.00 | 0.25 | 0.25 | 89 | 1009.3 |
| 20260505165039 | 11 | 323 | 6.4 | 17.7 | 0.00 | 0.25 | 0.25 | 89 | 1009.0 |
| 20260505164539 | 11 | 17 | 8.0 | 16.1 | 0.00 | 0.25 | 0.25 | 89 | 1008.8 |
| 20260505164039 | 11 | 32 | 3.2 | 16.1 | 0.00 | 0.25 | 0.25 | 89 | 1008.7 |
| 20260505163539 | 11 | 355 | 4.8 | 17.7 | 0.00 | 0.25 | 0.25 | 88 | 1008.5 |
| 20260505163037 | 11 | 360 | 6.4 | 20.9 | 0.00 | 0.25 | 0.25 | 88 | 1008.4 |
| 20260505162538 | 11 | 69 | 4.8 | 20.9 | 0.00 | 0.25 | 0.25 | 89 | 1008.2 |
| 20260505162036 | 11 | 19 | 8.0 | 16.1 | 0.00 | 0.25 | 0.25 | 88 | 1007.8 |
| 20260505161535 | 11 | 186 | 0.0 | 16.1 | 0.00 | 0.25 | 0.25 | 90 | 1008.0 |
| 20260505161037 | 11 | 333 | 3.2 | 19.3 | 0.00 | 0.25 | 0.25 | 89 | 1008.1 |
| 20260505160637 | 11 | 320 | 9.7 | 20.9 | 0.00 | 0.25 | 0.25 | 89 | 1008.2 |
| 20260505153055 | 12 | 341 | 4.8 | 16.1 | 0.00 | 0.25 | 0.25 | 86 | 1008.8 |
| 20260505152556 | 12 | 355 | 4.8 | 14.5 | 0.00 | 0.25 | 0.25 | 86 | 1008.9 |
| 20260505152054 | 12 | 15 | 3.2 | 14.5 | 0.00 | 0.25 | 0.25 | 85 | 1008.9 |
| 20260505151553 | 12 | 336 | 4.8 | 14.5 | 0.00 | 0.25 | 0.25 | 86 | 1008.6 |
| 20260505151053 | 12 | 46 | 3.2 | 12.9 | 0.00 | 0.25 | 0.25 | 85 | 1008.3 |
| 20260505150654 | 12 | 316 | 4.8 | 16.1 | 0.00 | 0.25 | 0.25 | 85 | 1008.4 |
| 20260505150108 | 12 | 355 | 6.4 | 16.1 | 0.00 | 0.25 | 0.25 | 85 | 1008.4 |
| 20260505140645 | 12 | 113 | 6.4 | 19.3 | 0.00 | 0.25 | 0.25 | 86 | 1007.9 |
| 20260505124554 | 11 | 43 | 6.4 | 27.4 | 0.00 | 0.25 | 0.25 | 91 | 1007.8 |
| 20260505124052 | 11 | 355 | 11.3 | 27.4 | 0.00 | 0.25 | 0.25 | 91 | 1007.9 |
| 20260505123550 | 11 | 82 | 11.3 | 37.0 | 0.00 | 0.25 | 0.25 | 91 | 1007.9 |
| 20260505123055 | 11 | 119 | 11.3 | 37.0 | 0.00 | 0.25 | 0.25 | 91 | 1007.8 |
| 20260505122543 | 11 | 44 | 11.3 | 32.2 | 0.00 | 0.25 | 0.25 | 92 | 1008.1 |
| 20260505122044 | 12 | 360 | 11.3 | 30.6 | 0.00 | 0.25 | 0.25 | 93 | 1007.8 |
| 20260505121612 | 12 | 33 | 8.0 | 20.9 | 0.00 | 0.25 | 0.25 | 93 | 1007.9 |
| 20260505121040 | 12 | 32 | 4.8 | 24.1 | 0.00 | 0.25 | 0.25 | 93 | 1007.8 |
| 20260505120641 | 12 | 360 | 8.0 | 24.1 | 0.00 | 0.25 | 0.25 | 92 | 1007.7 |
| 20260505120051 | 12 | 325 | 9.7 | 24.1 | 0.00 | 0.25 | 0.25 | 92 | 1007.7 |
| 20260505115550 | 12 | 24 | 6.4 | 27.4 | 0.00 | 0.25 | 0.25 | 92 | 1007.7 |
| 20260505115048 | 13 | 5 | 12.9 | 27.4 | 0.00 | 0.25 | 0.25 | 92 | 1007.4 |
| 20260505114547 | 13 | 331 | 6.4 | 32.2 | 0.03 | 0.25 | 0.25 | 92 | 1007.3 |
| 20260505114046 | 13 | 360 | 16.1 | 33.8 | 0.03 | 0.25 | 0.25 | 92 | 1007.0 |
| 20260505113544 | 14 | 345 | 14.5 | 33.8 | 0.10 | 0.25 | 0.25 | 93 | 1006.9 |
| 20260505113046 | 15 | 342 | 8.0 | 20.9 | 0.25 | 0.25 | 0.25 | 93 | 1006.9 |
| 20260505112541 | 15 | 329 | 8.0 | 20.9 | 0.25 | 0.25 | 0.25 | 93 | 1006.9 |
| 20260505112041 | 14 | 355 | 4.8 | 9.7 | 0.25 | 0.25 | 0.25 | 93 | 1006.9 |
| 20260505111542 | 14 | 355 | 3.2 | 9.7 | 0.25 | 0.25 | 0.25 | 93 | 1006.7 |
| 20260505111041 | 14 | 360 | 0.0 | 8.0 | 0.25 | 0.25 | 0.25 | 92 | 1006.5 |
| 20260505110637 | 14 | 311 | 1.6 | 8.0 | 0.25 | 0.25 | 0.25 | 92 | 1006.3 |
| 20260505102038 | 16 | 152 | 1.6 | 9.7 | 0.00 | 0.00 | 0.00 | 80 | 1004.6 |
| 20260505101542 | 16 | 134 | 3.2 | 14.5 | 0.00 | 0.00 | 0.00 | 80 | 1004.5 |
| 20260505101038 | 16 | 151 | 1.6 | 14.5 | 0.00 | 0.00 | 0.00 | 81 | 1004.3 |
| 20260505100638 | 16 | 159 | 3.2 | 9.7 | 0.00 | 0.00 | 0.00 | 81 | 1004.3 |
| 20260505100137 | 16 | 180 | 3.2 | 11.3 | 0.00 | 0.00 | 0.00 | 81 | 1004.2 |
| 20260505095600 | 16 | 122 | 1.6 | 11.3 | 0.00 | 0.00 | 0.00 | 81 | 1004.4 |
| 20260505095057 | 16 | 138 | 3.2 | 11.3 | 0.00 | 0.00 | 0.00 | 82 | 1004.4 |
| 20260505094557 | 16 | 143 | 1.6 | 11.3 | 0.00 | 0.00 | 0.00 | 82 | 1004.5 |
| 20260505094057 | 16 | 146 | 3.2 | 9.7 | 0.00 | 0.00 | 0.00 | 82 | 1004.3 |
| 20260505093556 | 16 | 142 | 1.6 | 9.7 | 0.00 | 0.00 | 0.00 | 83 | 1004.5 |
| 20260505093056 | 15 | 229 | 3.2 | 9.7 | 0.00 | 0.00 | 0.00 | 83 | 1004.4 |
| 20260505092558 | 15 | 184 | 1.6 | 11.3 | 0.00 | 0.00 | 0.00 | 85 | 1004.3 |
| 20260505092055 | 15 | 186 | 1.6 | 8.0 | 0.00 | 0.00 | 0.00 | 84 | 1004.7 |
| 20260505091616 | 15 | 165 | 1.6 | 9.7 | 0.00 | 0.00 | 0.00 | 85 | 1004.8 |
| 20260505091053 | 15 | 212 | 3.2 | 9.7 | 0.00 | 0.00 | 0.00 | 84 | 1004.7 |
| 20260505090654 | 15 | 124 | 1.6 | 8.0 | 0.00 | 0.00 | 0.00 | 84 | 1004.8 |
| 20260505090101 | 15 | 185 | 1.6 | 9.7 | 0.00 | 0.00 | 0.00 | 84 | 1004.9 |
| 20260505085554 | 15 | 85 | 1.6 | 9.7 | 0.00 | 0.00 | 0.00 | 84 | 1004.9 |
| 20260505085054 | 15 | 192 | 3.2 | 6.4 | 0.00 | 0.00 | 0.00 | 84 | 1004.8 |
| 20260505084554 | 15 | 169 | 1.6 | 11.3 | 0.00 | 0.00 | 0.00 | 85 | 1004.8 |
| 20260505084053 | 15 | 146 | 3.2 | 11.3 | 0.00 | 0.00 | 0.00 | 85 | 1004.8 |
| 20260505083553 | 15 | 128 | 3.2 | 8.0 | 0.00 | 0.00 | 0.00 | 85 | 1004.9 |
| 20260505083053 | 15 | 147 | 1.6 | 8.0 | 0.00 | 0.00 | 0.00 | 85 | 1004.9 |
| 20260505082551 | 15 | 125 | 1.6 | 8.0 | 0.00 | 0.00 | 0.00 | 85 | 1004.9 |
| 20260505082052 | 15 | 140 | 3.2 | 8.0 | 0.00 | 0.00 | 0.00 | 85 | 1004.8 |
| 20260505081551 | 15 | 165 | 1.6 | 9.7 | 0.00 | 0.00 | 0.00 | 84 | 1004.9 |
| 20260505081051 | 15 | 146 | 3.2 | 9.7 | 0.00 | 0.00 | 0.00 | 84 | 1004.9 |
| 20260505080650 | 15 | 143 | 0.0 | 9.7 | 0.00 | 0.00 | 0.00 | 85 | 1005.0 |
| 20260505080055 | 15 | 153 | 1.6 | 9.7 | 0.00 | 0.00 | 0.00 | 86 | 1005.3 |
| 20260505075555 | 14 | 157 | 1.6 | 3.2 | 0.00 | 0.00 | 0.00 | 87 | 1005.4 |
| 20260505075055 | 14 | 167 | 0.0 | 4.8 | 0.00 | 0.00 | 0.00 | 88 | 1005.5 |
| 20260505074554 | 14 | 119 | 0.0 | 3.2 | 0.00 | 0.00 | 0.00 | 88 | 1005.5 |
| 20260505074056 | 15 | 153 | 0.0 | 3.2 | 0.00 | 0.00 | 0.00 | 87 | 1005.7 |
| 20260505073553 | 15 | 148 | 0.0 | 1.6 | 0.00 | 0.00 | 0.00 | 86 | 1006.0 |
| 20260505073058 | 15 | 148 | 0.0 | 1.6 | 0.00 | 0.00 | 0.00 | 86 | 1006.0 |
| 20260505072550 | 15 | 165 | 0.0 | 1.6 | 0.00 | 0.00 | 0.00 | 86 | 1006.2 |
| 20260505072051 | 15 | 190 | 0.0 | 1.6 | 0.00 | 0.00 | 0.00 | 85 | 1006.3 |
| 20260505071549 | 15 | 190 | 0.0 | 0.0 | 0.00 | 0.00 | 0.00 | 85 | 1006.5 |
| 20260505071048 | 15 | 190 | 0.0 | 1.6 | 0.00 | 0.00 | 0.00 | 85 | 1006.5 |
| 20260505070649 | 15 | 190 | 0.0 | 1.6 | 0.00 | 0.00 | 0.00 | 83 | 1006.5 |
| 20260505070051 | 15 | 190 | 0.0 | 1.6 | 0.00 | 0.00 | 0.00 | 83 | 1006.4 |
| 20260505065549 | 15 | 190 | 0.0 | 1.6 | 0.00 | 0.00 | 0.00 | 82 | 1006.4 |
| 20260505065049 | 16 | 182 | 0.0 | 1.6 | 0.00 | 0.00 | 0.00 | 82 | 1006.1 |
| 20260505064548 | 16 | 182 | 0.0 | 1.6 | 0.00 | 0.00 | 0.00 | 82 | 1006.2 |
| 20260505064047 | 16 | 182 | 0.0 | 4.8 | 0.00 | 0.00 | 0.00 | 82 | 1006.0 |
| 20260505063546 | 16 | 182 | 0.0 | 4.8 | 0.00 | 0.00 | 0.00 | 81 | 1006.0 |
| 20260505063050 | 16 | 194 | 0.0 | 9.7 | 0.00 | 0.00 | 0.00 | 80 | 1005.8 |
| 20260505062545 | 16 | 188 | 1.6 | 11.3 | 0.00 | 0.00 | 0.00 | 78 | 1005.7 |
| 20260505062045 | 16 | 211 | 3.2 | 11.3 | 0.00 | 0.00 | 0.00 | 78 | 1005.6 |
| 20260505061547 | 16 | 200 | 1.6 | 8.0 | 0.00 | 0.00 | 0.00 | 79 | 1005.2 |
| 20260505061046 | 16 | 178 | 3.2 | 11.3 | 0.00 | 0.00 | 0.00 | 79 | 1004.8 |
| 20260505060645 | 16 | 173 | 4.8 | 11.3 | 0.00 | 0.00 | 0.00 | 80 | 1004.8 |
| 20260505060048 | 16 | 167 | 1.6 | 8.0 | 0.00 | 0.00 | 0.00 | 79 | 1004.9 |
| 20260505055548 | 16 | 160 | 1.6 | 8.0 | 0.00 | 0.00 | 0.00 | 77 | 1004.9 |
| 20260505055047 | 16 | 165 | 1.6 | 8.0 | 0.00 | 0.00 | 0.00 | 77 | 1004.9 |
| 20260505054613 | 16 | 140 | 4.8 | 9.7 | 0.00 | 0.00 | 0.00 | 78 | 1005.1 |
| 20260505054045 | 16 | 144 | 1.6 | 9.7 | 0.00 | 0.00 | 0.00 | 77 | 1005.5 |
| 20260505053545 | 16 | 140 | 1.6 | 12.9 | 0.00 | 0.00 | 0.00 | 77 | 1005.7 |
| 20260505053048 | 17 | 184 | 3.2 | 12.9 | 0.00 | 0.00 | 0.00 | 76 | 1005.5 |
| 20260505052546 | 17 | 203 | 0.0 | 9.7 | 0.00 | 0.00 | 0.00 | 76 | 1005.6 |
| 20260505052042 | 17 | 142 | 4.8 | 16.1 | 0.00 | 0.00 | 0.00 | 76 | 1005.6 |
| 20260505051544 | 17 | 201 | 3.2 | 16.1 | 0.00 | 0.00 | 0.00 | 75 | 1005.6 |
| 20260505051041 | 17 | 134 | 3.2 | 11.3 | 0.00 | 0.00 | 0.00 | 75 | 1005.8 |
| 20260505050640 | 17 | 171 | 0.0 | 8.0 | 0.00 | 0.00 | 0.00 | 75 | 1005.7 |
| 20260505041548 | 17 | 143 | 1.6 | 8.0 | 0.00 | 0.00 | 0.00 | 73 | 1006.3 |
| 20260505041037 | 17 | 205 | 1.6 | 8.0 | 0.00 | 0.00 | 0.00 | 73 | 1006.4 |
| 20260505040637 | 18 | 146 | 1.6 | 12.9 | 0.00 | 0.00 | 0.00 | 72 | 1006.3 |
| 20260505040051 | 18 | 180 | 3.2 | 12.9 | 0.00 | 0.00 | 0.00 | 69 | 1006.2 |
| 20260505035551 | 18 | 190 | 1.6 | 12.9 | 0.00 | 0.00 | 0.00 | 69 | 1006.2 |
| 20260505035053 | 19 | 232 | 3.2 | 19.3 | 0.00 | 0.00 | 0.00 | 68 | 1006.2 |
| 20260505034551 | 19 | 219 | 6.4 | 19.3 | 0.00 | 0.00 | 0.00 | 68 | 1006.2 |
| 20260505034050 | 19 | 161 | 3.2 | 16.1 | 0.00 | 0.00 | 0.00 | 68 | 1006.1 |
| 20260505033551 | 19 | 153 | 6.4 | 16.1 | 0.00 | 0.00 | 0.00 | 67 | 1006.1 |
| 20260505033050 | 19 | 175 | 4.8 | 16.1 | 0.00 | 0.00 | 0.00 | 67 | 1006.1 |
| 20260505032549 | 19 | 207 | 6.4 | 16.1 | 0.00 | 0.00 | 0.00 | 67 | 1006.0 |
| 20260505032054 | 19 | 187 | 8.0 | 16.1 | 0.00 | 0.00 | 0.00 | 67 | 1006.0 |
| 20260505031553 | 19 | 226 | 6.4 | 16.1 | 0.00 | 0.00 | 0.00 | 68 | 1005.9 |
| 20260505031049 | 19 | 177 | 4.8 | 17.7 | 0.00 | 0.00 | 0.00 | 67 | 1005.9 |
| 20260505030651 | 19 | 203 | 3.2 | 11.3 | 0.00 | 0.00 | 0.00 | 67 | 1005.9 |
| 20260505030057 | 19 | 168 | 3.2 | 16.1 | 0.00 | 0.00 | 0.00 | 67 | 1005.8 |
| 20260505025546 | 20 | 204 | 1.6 | 16.1 | 0.00 | 0.00 | 0.00 | 66 | 1005.7 |
| 20260505025045 | 20 | 201 | 4.8 | 14.5 | 0.00 | 0.00 | 0.00 | 65 | 1005.7 |
| 20260505024545 | 20 | 198 | 3.2 | 19.3 | 0.00 | 0.00 | 0.00 | 65 | 1005.5 |
| 20260505024045 | 20 | 209 | 4.8 | 19.3 | 0.00 | 0.00 | 0.00 | 64 | 1005.4 |
| 20260505023545 | 20 | 188 | 6.4 | 16.1 | 0.00 | 0.00 | 0.00 | 64 | 1005.1 |
| 20260505023044 | 20 | 168 | 6.4 | 12.9 | 0.00 | 0.00 | 0.00 | 64 | 1005.0 |
| 20260505022544 | 20 | 157 | 4.8 | 12.9 | 0.00 | 0.00 | 0.00 | 64 | 1004.9 |
| 20260505022045 | 20 | 188 | 3.2 | 12.9 | 0.00 | 0.00 | 0.00 | 64 | 1004.8 |
| 20260505021552 | 20 | 234 | 4.8 | 14.5 | 0.00 | 0.00 | 0.00 | 63 | 1004.8 |
| 20260505021044 | 21 | 171 | 6.4 | 17.7 | 0.00 | 0.00 | 0.00 | 63 | 1004.6 |
| 20260505020647 | 21 | 203 | 4.8 | 17.7 | 0.00 | 0.00 | 0.00 | 63 | 1004.5 |
| 20260505020051 | 21 | 209 | 4.8 | 14.5 | 0.00 | 0.00 | 0.00 | 63 | 1004.4 |
| 20260505015540 | 21 | 177 | 6.4 | 11.3 | 0.00 | 0.00 | 0.00 | 63 | 1004.4 |
| 20260505015042 | 20 | 201 | 4.8 | 9.7 | 0.00 | 0.00 | 0.00 | 64 | 1004.4 |
| 20260505014540 | 20 | 183 | 3.2 | 19.3 | 0.00 | 0.00 | 0.00 | 64 | 1004.4 |
| 20260505014039 | 21 | 171 | 4.8 | 19.3 | 0.00 | 0.00 | 0.00 | 65 | 1004.5 |
| 20260505013543 | 21 | 215 | 3.2 | 11.3 | 0.00 | 0.00 | 0.00 | 64 | 1004.5 |
| 20260505013041 | 21 | 160 | 3.2 | 11.3 | 0.00 | 0.00 | 0.00 | 64 | 1004.5 |
| 20260505012539 | 21 | 184 | 3.2 | 8.0 | 0.00 | 0.00 | 0.00 | 63 | 1004.5 |
| 20260505012039 | 21 | 182 | 1.6 | 8.0 | 0.00 | 0.00 | 0.00 | 63 | 1004.4 |
| 20260505011539 | 21 | 196 | 3.2 | 8.0 | 0.00 | 0.00 | 0.00 | 62 | 1004.5 |
| 20260505011038 | 21 | 194 | 1.6 | 9.7 | 0.00 | 0.00 | 0.00 | 62 | 1004.3 |
| 20260505010639 | 21 | 180 | 3.2 | 6.4 | 0.00 | 0.00 | 0.00 | 61 | 1004.3 |
| 20260505010104 | 21 | 147 | 1.6 | 12.9 | 0.00 | 0.00 | 0.00 | 60 | 1004.3 |
| 20260505005542 | 22 | 176 | 3.2 | 19.3 | 0.00 | 0.00 | 0.00 | 60 | 1004.3 |
| 20260505005043 | 22 | 158 | 6.4 | 19.3 | 0.00 | 0.00 | 0.00 | 60 | 1004.2 |
| 20260505004542 | 22 | 113 | 3.2 | 16.1 | 0.00 | 0.00 | 0.00 | 59 | 1004.1 |
| 20260505004041 | 22 | 196 | 3.2 | 16.1 | 0.00 | 0.00 | 0.00 | 58 | 1004.1 |
| 20260505003541 | 22 | 217 | 3.2 | 17.7 | 0.00 | 0.00 | 0.00 | 57 | 1004.1 |
| 20260505003048 | 23 | 199 | 3.2 | 33.8 | 0.00 | 0.00 | 0.00 | 57 | 1004.0 |
| 20260505002541 | 23 | 163 | 6.4 | 33.8 | 0.00 | 0.00 | 0.00 | 56 | 1004.0 |
| 20260505002041 | 23 | 238 | 6.4 | 17.7 | 0.00 | 0.00 | 0.00 | 55 | 1004.1 |
| 20260505001541 | 23 | 182 | 4.8 | 16.1 | 0.00 | 0.00 | 0.00 | 56 | 1003.9 |
| 20260505001042 | 23 | 159 | 9.7 | 22.5 | 0.00 | 0.00 | 0.00 | 54 | 1004.0 |
| 20260505000640 | 23 | 215 | 8.0 | 22.5 | 0.00 | 0.00 | 0.00 | 55 | 1004.1 |
| 20260505000045 | 23 | 214 | 8.0 | 25.7 | 0.00 | 0.00 | 0.00 | 54 | 1003.9 |
| 20260504235540 | 23 | 176 | 9.7 | 25.7 | 0.00 | 0.00 | 0.00 | 54 | 1003.9 |
| 20260504235038 | 23 | 188 | 6.4 | 20.9 | 0.00 | 0.00 | 0.00 | 54 | 1004.0 |
| 20260504234538 | 24 | 219 | 6.4 | 32.2 | 0.00 | 0.00 | 0.00 | 54 | 1004.1 |
| 20260504234037 | 24 | 175 | 9.7 | 32.2 | 0.00 | 0.00 | 0.00 | 53 | 1004.2 |
| 20260504233537 | 24 | 212 | 4.8 | 19.3 | 0.00 | 0.00 | 0.00 | 54 | 1004.2 |
| 20260504233044 | 24 | 221 | 9.7 | 24.1 | 0.00 | 0.00 | 0.00 | 53 | 1004.0 |
| 20260504232537 | 25 | 188 | 8.0 | 24.1 | 0.00 | 0.00 | 0.00 | 52 | 1004.2 |
| 20260504232036 | 25 | 175 | 8.0 | 24.1 | 0.00 | 0.00 | 0.00 | 52 | 1004.2 |
| 20260504231537 | 25 | 237 | 6.4 | 19.3 | 0.00 | 0.00 | 0.00 | 52 | 1004.2 |
| 20260504231036 | 25 | 267 | 4.8 | 24.1 | 0.00 | 0.00 | 0.00 | 53 | 1004.2 |
| 20260504230636 | 25 | 199 | 6.4 | 24.1 | 0.00 | 0.00 | 0.00 | 52 | 1004.3 |
| 20260504230109 | 25 | 178 | 9.7 | 19.3 | 0.00 | 0.00 | 0.00 | 51 | 1004.2 |
| 20260504225552 | 25 | 123 | 6.4 | 32.2 | 0.00 | 0.00 | 0.00 | 51 | 1004.1 |
| 20260504225051 | 25 | 169 | 8.0 | 32.2 | 0.00 | 0.00 | 0.00 | 51 | 1004.1 |
| 20260504224601 | 25 | 183 | 11.3 | 25.7 | 0.00 | 0.00 | 0.00 | 50 | 1004.1 |
| 20260504224049 | 25 | 259 | 6.4 | 19.3 | 0.00 | 0.00 | 0.00 | 51 | 1004.3 |
| 20260504223549 | 25 | 244 | 8.0 | 27.4 | 0.00 | 0.00 | 0.00 | 50 | 1004.1 |
| 20260504223049 | 25 | 265 | 12.9 | 32.2 | 0.00 | 0.00 | 0.00 | 49 | 1004.2 |